Regional Weather Roundup
Issued by NWS

Home | Current Version | Previous Version | Graphics & Text | Print | Product List | Glossary On
Versions: 1 2 3 4 5 6 7 8 9 10 11 12 13 14 15 16 17 18 19 20 21 22 23 24 25 26 27 28 29 30 31 32 33 34 35 36 37 38 39 40 41 42 43 44 45 46 47 48 49 50
540
ASUS45 KBOU 170407
RWRCO

WEATHER ROUNDUP FOR COLORADO
NATIONAL WEATHER SERVICE DENVER/BOULDER CO
900 PM MST MON JAN 16 2017

NOTE: "FAIR" INDICATES FEW OR NO CLOUDS BELOW 12000 FEET WITH NO
SIGNIFICANT WEATHER AND/OR OBSTRUCTIONS TO VISIBILITY.

COZ001>005-013-030-031-170500-
...NORTHWEST COLORADO...

CITY           SKY/WX    TMP DP  RH WIND       PRES   REMARKS
CRAIG          CLOUDY    16  12  84 SE6       30.19F WCI   7
HAYDEN         CLOUDY    16  10  79 SW3       30.17S
MEEKER         CLOUDY    16  11  80 CALM      30.16R
MOUNT WERNER   NOT AVBL
STEAMBOAT SPGS CLOUDY    19  16  91 CALM      30.15S
WALDEN           N/A     10   7  85 N6        30.12S VSB 1/4 WCI   1
$$

COZ006>008-011-170500-
...WEST CENTRAL VALLEYS...

CITY           SKY/WX    TMP DP  RH WIND       PRES   REMARKS
GRAND JUNCTION FAIR      31  24  75 CALM      30.12R
MONTROSE       FAIR      30  26  85 SE7       30.12S WCI  23
EAGLE          MOCLDY    23  19  86 E6        30.13R WCI  16
RIFLE          FAIR      26  20  77 CALM      30.14R
DELTA          CLOUDY    38  30  75 CALM      30.12R
NUCLA          FAIR      32  21  64 N5        30.11S WCI  27
$$

COZ017>023-064>068-170500-
...SOUTHWEST COLORADO...

CITY           SKY/WX    TMP DP  RH WIND       PRES   REMARKS
DURANGO        LGT SNOW  32  29  88 CALM      30.07R FOG
CORTEZ         LGT SNOW  34  34 100 CALM      30.07R FOG
PAGOSA SPRINGS LGT SNOW  32  32 100 CALM      30.08R
TELLURIDE      CLOUDY    24  24 100 SE3       30.06S
WOLF CREEK PAS CLOUDY    19  19 100 CALM      30.13R
$$

COZ009-010-012-014-032>034-037-058>063-170500-
...CENTRAL COLORADO...

CITY           SKY/WX    TMP DP  RH WIND       PRES   REMARKS
ASPEN          MOCLDY    19  17  92 CALM      30.06R
BUENA VISTA    LGT SNOW  29  28  95 CALM      30.09S
COPPER MTN     FAIR      25  19  80 SE7       30.08S WCI  17
BERTHOUD PASS  NOT AVBL
COTTONWOOD PAS SNOW      28  27  93 E3        30.08S VSB 1/4
GUNNISON       FLURRIES  25  24  96 CALM      30.08R
KREMMLING      FAIR      18  14  86 CALM      30.12R
LEADVILLE      FOG       22  21  96 CALM      30.06S VSB 1/4
MONARCH PASS   CLOUDY    19  16  86 MISG      30.18S
SALIDA         CLOUDY    32  30  94 SE6       30.17S WCI  26
SUNLIGHT       CLOUDY    19  18  93 NE6       30.11S FOG     WCI  11
WILKERSON PASS CLOUDY   N/A N/A N/A CALM      30.12R
$$

COZ069>075-170500-
...SAN LUIS VALLEY/SANGRE DE CRISTO MOUNTAINS...

CITY           SKY/WX    TMP DP  RH WIND       PRES   REMARKS
ALAMOSA        CLOUDY    27  26  96 CALM      30.07R
LA VETA PASS   LGT SNOW  21  18  86 SW7G16    30.10R VSB 3/4 WCI  13
SAGUACHE       LGT SNOW  32  32 100 CALM      30.09R
$$

COZ035-036-038>040-170500-
...NORTHERN COLORADO FRONT RANGE...

CITY           SKY/WX    TMP DP  RH WIND       PRES   REMARKS
DENVER INTL AP CLOUDY    33  26  75 SW9       30.10F WCI  25
DMNS CITY PARK   N/A     33  27  79 SE8       30.12R WCI  26
AURORA         CLOUDY    31  28  89 S6        30.11S WCI  25
FRONT RANGE AP CLOUDY    34  28  80 SW7       30.12S WCI  28
ERIE MUNI ARPT CLOUDY    32  29  89 S3        30.11S
BOULDER MUN AP CLOUDY    34  32  93 CALM      30.10S
CENTENNIAL     CLOUDY    30  23  75 S5        30.11S WCI  25
BROOMFIELD     CLOUDY    32  27  80 W3        30.11F
FORT COLLINS   FAIR      30  25  80 NW5       30.12R WCI  25
LONGMONT       CLOUDY    35  31  87 CALM      30.13S
$$

COZ041-046-047-076>085-087-088-170500-
...PIKES PEAK/PALMER DIVIDE AND SOUTHERN FOOTHILLS...

CITY           SKY/WX    TMP DP  RH WIND       PRES   REMARKS
COLO. SPRINGS  CLOUDY    32  23  69 NW6       30.13R WCI  26
A. F. ACADEMY  FAIR      29  24  82 CALM      30.11R
SCHRIEVER AFB  NOT AVBL
ELLICOTT       CLOUDY   N/A N/A N/A N5        30.11R
FALCON         CLOUDY    29  22  75 NW7       30.12R WCI  22
FORT CARSON    NOT AVBL
LIMON          CLOUDY    28  25  88 W9        30.11R WCI  19
MONUMENT HILL  CLOUDY    25  21  86 SW8       30.12R WCI  16
TRINIDAD       CLOUDY    31  28  89 NW7       30.15R WCI  24
$$

COZ042>045-048>051-090-091-170500-
...NORTHEAST COLORADO...

CITY           SKY/WX    TMP DP  RH WIND       PRES   REMARKS
GREELEY ARPT   FAIR      29  26  89 CALM      30.13R
AKRON          CLOUDY    32  21  64 NW8       30.09S WCI  25
BURLINGTON     CLOUDY    32  27  81 W7        30.09R WCI  26
WRAY           CLOUDY    34  28  80 W5        30.10  WCI  30
STERLING       MOCLDY    30  23  74 N7        30.09S WCI  23
HOLYOKE        FAIR      34  25  69 NW12      30.08F WCI  25
FORT MORGAN    CLOUDY    31  23  72 W5        30.11S WCI  26
$$

COZ086-089-092>099-170500-
...SOUTHEAST COLORADO...

CITY           SKY/WX    TMP DP  RH WIND       PRES   REMARKS
PUEBLO         CLOUDY    33  32  96 CALM      30.15S FOG
LA JUNTA       LGT SNOW  33  31  92 W9        30.16R FOG     WCI  25
LAMAR          LGT SNOW  33  31  92 NW8       30.13R FOG     WCI  26
SPRINGFIELD      N/A     31  30  96 N17       30.10R WCI  19
$$




USA.gov is the U.S. government's official web portal to all federal, state and local government web resources and services.